Tracking 29892 objects as of 21-Nov-2024
HD Live streaming from Space Station
objects crossing your sky now

STARLINK-5171

Track STARLINK-5171 now!
10-day predictions
STARLINK-5171 is classified as:


NORAD ID: 54077
Int'l Code: 2022-136AC
Perigee: 533.7 km
Apogee: 537.0 km
Inclination: 53.2 °
Period: 95.2 minutes
Semi major axis: 6906 km
RCS: Unknown
Launch date: October 20, 2022
Source: United States (US)
Launch site: AIR FORCE EASTERN TEST RANGE (AFETR)
Your satellite tracking list
Your tracking list is empty




NASA's NSSDC Master Catalog

Two Line Element Set (TLE):
1 54077U 22136AC  24325.92358153  .00005030  00000-0  30133-3 0  9990
2 54077  53.2178 288.0497 0002419  85.5816 274.5454 15.12627888116128
Source of the keplerian elements: AFSPC